Location: Unspecified
(47.0835°N, 11.5736°E)
Time: 19:16:46
(UTC+01:00)

N. Korean satellite - Visible Passes

Search period start: 24 January 2022 00:00
Search period end: 03 February 2022 00:00
Orbit: 447 x 491 km, 97.3° (Epoch: 23 January)

Date Brightness Start Highest point End Pass type
(mag) Time Alt. Az. Time Alt. Az. Time Alt. Az.
24 Jan 9.3 04:39:28 10° NE 04:41:53 19° E 04:41:53 19° E visible
24 Jan 7.2 06:12:02 10° N 06:15:21 33° WNW 06:15:57 31° W visible
25 Jan 6.4 05:42:37 10° N 05:46:16 75° WNW 05:46:51 59° SW visible
25 Jan 10.3 17:55:23 10° W 17:55:59 10° W 17:56:36 10° WNW visible
26 Jan 7.6 05:13:31 10° NNE 05:17:03 47° E 05:17:47 40° SE visible
26 Jan 8.3 06:47:42 10° NNW 06:49:50 15° WNW 06:51:51 10° W visible
27 Jan 9.1 04:44:50 10° NE 04:47:42 22° E 04:48:43 19° ESE visible
27 Jan 7.4 06:17:40 10° N 06:20:52 29° WNW 06:22:46 18° WSW visible
28 Jan 10.0 04:17:38 10° E 04:18:13 10° E 04:18:48 10° E visible
28 Jan 6.5 05:48:08 10° N 05:51:45 64° WNW 05:53:43 25° SSW visible
29 Jan 7.2 05:18:56 10° NNE 05:22:32 55° E 05:24:41 22° S visible
29 Jan 8.4 06:53:28 10° NNW 06:55:14 13° WNW 06:56:59 10° W visible
30 Jan 8.8 04:50:07 10° NE 04:53:10 25° E 04:55:41 13° SSE visible
30 Jan 7.6 06:23:12 10° NNW 06:26:14 25° WNW 06:29:16 10° SW visible
31 Jan 9.9 04:22:13 10° ENE 04:23:39 12° E 04:25:05 10° ESE visible
31 Jan 6.6 05:53:33 10° N 05:57:07 54° WNW 06:00:39 10° SSW visible
01 Feb 6.9 05:24:15 10° NNE 05:27:52 64° E 05:31:27 10° S visible
01 Feb 8.5 06:59:11 10° NW 07:00:29 12° WNW 07:01:47 10° W visible
02 Feb 8.6 04:55:17 10° NE 04:58:29 28° E 05:01:38 10° SSE visible
02 Feb 7.8 06:28:37 10° NNW 06:31:29 22° WNW 06:34:21 10° WSW visible
